IBE107 LEBL-LEZL

Flight info

Callsign IBE107
Flight time 1h 10m
Altitude 31000
Route LOTOS DCT TORDU DCT DIKUT DCT SOPET DCT VLC DCT SERRA DCT ASTRO DCT POBOS DCT XEBAR DCT YES DCT BLN
Aircraft A320/M-SDE3FGHIRWY/LB1

Departure

Time 2026-03-26 09:29
Airport Josep Tarradellas Barcelona-El Prat Airport (LEBL)

Arrival

Time 2026-03-26 10:39
Airport Seville Airport (LEZL)
Time Latitude Longitude Altitude Speed Heading
2026-03-26 09:17 41.29208 2.08120 3 ft 0 kts 153°
2026-03-26 09:20 41.29208 2.08119 3 ft 2 kts 153°
2026-03-26 09:20 41.29223 2.08109 3 ft 2 kts 153°
2026-03-26 09:21 41.29239 2.08099 3 ft 2 kts 153°
2026-03-26 09:21 41.29254 2.08089 3 ft 3 kts 136°
2026-03-26 09:21 41.29265 2.08070 4 ft 3 kts 100°
2026-03-26 09:21 41.29265 2.08046 3 ft 2 kts 64°
2026-03-26 09:22 41.29264 2.08044 3 ft 0 kts 64°
2026-03-26 09:23 41.29267 2.08052 3 ft 3 kts 62°
2026-03-26 09:23 41.29284 2.08094 4 ft 6 kts 60°
2026-03-26 09:23 41.29307 2.08147 3 ft 9 kts 62°
2026-03-26 09:23 41.29341 2.08241 4 ft 13 kts 65°
2026-03-26 09:24 41.29364 2.08358 3 ft 14 kts 107°
2026-03-26 09:24 41.29281 2.08433 3 ft 15 kts 155°
2026-03-26 09:24 41.29178 2.08495 3 ft 17 kts 155°
2026-03-26 09:24 41.29069 2.08561 6 ft 17 kts 155°
2026-03-26 09:25 41.28961 2.08625 8 ft 17 kts 156°
2026-03-26 09:25 41.28869 2.08730 4 ft 19 kts 89°
2026-03-26 09:25 41.28924 2.08897 3 ft 21 kts 64°
2026-03-26 09:25 41.28970 2.09041 3 ft 16 kts 66°
2026-03-26 09:26 41.29016 2.09180 3 ft 17 kts 66°
2026-03-26 09:26 41.29069 2.09331 4 ft 19 kts 65°
2026-03-26 09:26 41.29122 2.09494 3 ft 20 kts 67°
2026-03-26 09:26 41.29164 2.09610 3 ft 21 kts 65°
2026-03-26 09:27 41.29247 2.09856 3 ft 23 kts 66°
2026-03-26 09:27 41.29280 2.09976 4 ft 19 kts 87°
2026-03-26 09:27 41.29239 2.10149 4 ft 20 kts 103°
2026-03-26 09:27 41.29201 2.10267 6 ft 13 kts 227°
2026-03-26 09:28 41.29192 2.10243 5 ft 0 kts 246°
2026-03-26 09:28 41.29024 2.09753 8 ft 91 kts 246°
2026-03-26 09:29 41.28668 2.08726 10 ft 151 kts 244°
2026-03-26 09:29 41.28158 2.07400 476 ft 160 kts 242°
2026-03-26 09:29 41.27499 2.06240 1271 ft 158 kts 213°
2026-03-26 09:29 41.26388 2.05808 1628 ft 180 kts 181°
2026-03-26 09:30 41.25088 2.05791 2010 ft 200 kts 181°
2026-03-26 09:30 41.23611 2.05769 2474 ft 217 kts 182°
2026-03-26 09:30 41.22127 2.05739 3536 ft 210 kts 182°
2026-03-26 09:30 41.20659 2.05718 4397 ft 212 kts 183°
2026-03-26 09:31 41.19162 2.05698 5125 ft 219 kts 183°
2026-03-26 09:31 41.17640 2.05517 5861 ft 222 kts 197°
2026-03-26 09:31 41.16170 2.04725 6421 ft 235 kts 210°
2026-03-26 09:31 41.14693 2.03700 7116 ft 243 kts 210°
2026-03-26 09:32 41.13167 2.02650 7834 ft 251 kts 211°
2026-03-26 09:32 41.11598 2.01576 8571 ft 258 kts 212°
2026-03-26 09:32 41.09981 2.00471 9303 ft 265 kts 213°
2026-03-26 09:32 41.08455 1.99098 10028 ft 266 kts 229°
2026-03-26 09:33 41.07250 1.97250 10656 ft 268 kts 244°
2026-03-26 09:33 41.06424 1.94981 10919 ft 281 kts 260°
2026-03-26 09:33 41.05908 1.92388 11179 ft 303 kts 263°
2026-03-26 09:33 41.05350 1.89574 11410 ft 328 kts 260°
2026-03-26 09:34 41.04554 1.86608 11568 ft 354 kts 256°
2026-03-26 09:34 41.03640 1.83465 11697 ft 377 kts 255°
2026-03-26 09:34 41.02644 1.80160 11982 ft 393 kts 254°
2026-03-26 09:34 41.01606 1.76783 12535 ft 399 kts 254°
2026-03-26 09:35 41.00554 1.73369 13135 ft 403 kts 255°
2026-03-26 09:35 40.99499 1.69910 13725 ft 407 kts 256°
2026-03-26 09:35 40.98442 1.66414 14269 ft 410 kts 256°
2026-03-26 09:35 40.97386 1.62893 14840 ft 412 kts 255°
2026-03-26 09:36 40.96332 1.59364 15414 ft 413 kts 255°
2026-03-26 09:36 40.95287 1.55816 15987 ft 414 kts 256°
2026-03-26 09:36 40.94338 1.52227 16547 ft 414 kts 258°
2026-03-26 09:36 40.93475 1.48595 17104 ft 414 kts 259°
2026-03-26 09:37 40.92668 1.44987 17630 ft 416 kts 260°
2026-03-26 09:37 40.91855 1.41312 18154 ft 418 kts 259°
2026-03-26 09:37 40.91027 1.37619 18623 ft 420 kts 259°
2026-03-26 09:37 40.90180 1.33913 19053 ft 423 kts 259°
2026-03-26 09:38 40.89312 1.30189 19456 ft 425 kts 258°
2026-03-26 09:38 40.88427 1.26452 19860 ft 428 kts 258°
2026-03-26 09:38 40.87527 1.22690 20252 ft 430 kts 258°
2026-03-26 09:38 40.86507 1.18953 20625 ft 438 kts 251°
2026-03-26 09:39 40.84944 1.15445 20990 ft 450 kts 239°
2026-03-26 09:39 40.82804 1.12354 21350 ft 462 kts 227°
2026-03-26 09:39 40.80154 1.09869 21704 ft 475 kts 214°
2026-03-26 09:39 40.77079 1.08150 22054 ft 486 kts 201°
2026-03-26 09:40 40.73806 1.06968 22397 ft 489 kts 199°
2026-03-26 09:40 40.70504 1.05799 22736 ft 492 kts 199°
2026-03-26 09:40 40.67193 1.04627 23071 ft 494 kts 199°
2026-03-26 09:40 40.63867 1.03450 23394 ft 496 kts 199°
2026-03-26 09:41 40.60539 1.02229 23700 ft 496 kts 202°
2026-03-26 09:41 40.57350 1.00543 23957 ft 493 kts 211°
2026-03-26 09:41 40.54401 0.98289 24217 ft 488 kts 220°
2026-03-26 09:41 40.51756 0.95534 24474 ft 483 kts 228°
2026-03-26 09:42 40.49434 0.92373 24818 ft 478 kts 233°
2026-03-26 09:42 40.47195 0.89158 25188 ft 478 kts 233°
2026-03-26 09:42 40.44943 0.85946 25560 ft 477 kts 233°
2026-03-26 09:42 40.42689 0.82742 25941 ft 477 kts 233°
2026-03-26 09:43 40.40435 0.79551 26318 ft 476 kts 233°
2026-03-26 09:43 40.38186 0.76369 26687 ft 476 kts 233°
2026-03-26 09:43 40.35937 0.73186 27063 ft 475 kts 233°
2026-03-26 09:43 40.33695 0.70010 27448 ft 475 kts 233°
2026-03-26 09:44 40.31454 0.66832 27829 ft 475 kts 233°
2026-03-26 09:44 40.29207 0.63650 28210 ft 475 kts 233°
2026-03-26 09:44 40.26971 0.60488 28589 ft 474 kts 233°
2026-03-26 09:44 40.24725 0.57315 28974 ft 474 kts 233°
2026-03-26 09:45 40.22483 0.54152 29352 ft 474 kts 233°
2026-03-26 09:45 40.20237 0.50994 29729 ft 474 kts 232°
2026-03-26 09:45 40.17987 0.47836 30109 ft 474 kts 232°
2026-03-26 09:45 40.15734 0.44678 30434 ft 474 kts 232°
2026-03-26 09:46 40.13484 0.41519 30755 ft 474 kts 232°
2026-03-26 09:46 40.11236 0.38366 31016 ft 475 kts 232°
2026-03-26 09:46 40.08984 0.35206 31078 ft 478 kts 232°
2026-03-26 09:47 40.04431 0.28824 31084 ft 481 kts 232°
2026-03-26 09:47 39.99885 0.22473 31083 ft 482 kts 232°
2026-03-26 09:48 39.95279 0.16060 31083 ft 482 kts 232°
2026-03-26 09:48 39.90703 0.09691 31085 ft 481 kts 231°
2026-03-26 09:49 39.86147 0.03375 31085 ft 481 kts 231°
2026-03-26 09:49 39.81573 -0.02969 31085 ft 480 kts 231°
2026-03-26 09:50 39.77009 -0.09299 31088 ft 480 kts 231°
2026-03-26 09:50 39.72435 -0.15608 31093 ft 479 kts 231°
2026-03-26 09:51 39.67854 -0.21898 31091 ft 478 kts 231°
2026-03-26 09:51 39.63286 -0.28165 31101 ft 478 kts 230°
2026-03-26 09:52 39.58725 -0.34420 31097 ft 477 kts 230°
2026-03-26 09:52 39.54157 -0.40664 31108 ft 477 kts 230°
2026-03-26 09:53 39.49589 -0.46892 31097 ft 477 kts 230°
2026-03-26 09:53 39.45481 -0.53569 31093 ft 473 kts 237°
2026-03-26 09:54 39.41509 -0.60362 31089 ft 474 kts 236°
2026-03-26 09:54 39.37525 -0.67155 31084 ft 474 kts 236°
2026-03-26 09:55 39.33526 -0.73949 31078 ft 475 kts 236°
2026-03-26 09:55 39.29513 -0.80746 31072 ft 476 kts 236°
2026-03-26 09:56 39.25498 -0.87538 31070 ft 477 kts 236°
2026-03-26 09:56 39.21472 -0.94345 31085 ft 477 kts 236°
2026-03-26 09:57 39.17434 -1.01150 31082 ft 478 kts 236°
2026-03-26 09:57 39.13389 -1.07949 31081 ft 478 kts 236°
2026-03-26 09:58 39.09338 -1.14756 31080 ft 479 kts 235°
2026-03-26 09:58 39.05284 -1.21545 31077 ft 479 kts 235°
2026-03-26 09:59 39.01205 -1.28339 31086 ft 479 kts 235°
2026-03-26 09:59 38.97133 -1.35125 31086 ft 480 kts 235°
2026-03-26 10:00 38.93087 -1.41872 31085 ft 480 kts 235°
2026-03-26 10:00 38.89009 -1.48651 31084 ft 480 kts 235°
2026-03-26 10:01 38.84922 -1.55429 31086 ft 480 kts 234°
2026-03-26 10:01 38.80832 -1.62190 31093 ft 480 kts 234°
2026-03-26 10:02 38.76733 -1.68945 31091 ft 480 kts 234°
2026-03-26 10:02 38.72637 -1.75684 31100 ft 479 kts 234°
2026-03-26 10:03 38.68538 -1.82424 31105 ft 479 kts 234°
2026-03-26 10:03 38.64443 -1.89152 31106 ft 479 kts 234°
2026-03-26 10:04 38.60336 -1.95873 31105 ft 479 kts 234°
2026-03-26 10:04 38.56226 -2.02578 31106 ft 479 kts 234°
2026-03-26 10:05 38.52119 -2.09264 31095 ft 478 kts 234°
2026-03-26 10:05 38.45955 -2.19278 31082 ft 478 kts 233°
2026-03-26 10:06 38.41846 -2.25946 31067 ft 478 kts 233°
2026-03-26 10:06 38.37862 -2.32722 31059 ft 476 kts 241°
2026-03-26 10:07 38.35303 -2.40430 31052 ft 471 kts 258°
2026-03-26 10:07 38.33975 -2.48592 31047 ft 471 kts 261°
2026-03-26 10:08 38.32670 -2.56776 31038 ft 471 kts 261°
2026-03-26 10:08 38.31366 -2.64911 31037 ft 472 kts 260°
2026-03-26 10:09 38.30038 -2.73159 31039 ft 473 kts 260°
2026-03-26 10:09 38.28717 -2.81303 31040 ft 473 kts 260°
2026-03-26 10:10 38.27383 -2.89518 31044 ft 474 kts 260°
2026-03-26 10:10 38.26041 -2.97744 31046 ft 475 kts 260°
2026-03-26 10:11 38.24689 -3.05958 31053 ft 475 kts 260°
2026-03-26 10:11 38.23328 -3.14203 31052 ft 476 kts 259°
2026-03-26 10:12 38.21957 -3.22439 31054 ft 476 kts 259°
2026-03-26 10:12 38.20591 -3.30688 31053 ft 477 kts 259°
2026-03-26 10:13 38.19219 -3.38948 31054 ft 478 kts 259°
2026-03-26 10:13 38.17836 -3.47212 31052 ft 479 kts 259°
2026-03-26 10:14 38.16442 -3.55479 31052 ft 479 kts 259°
2026-03-26 10:14 38.14946 -3.63744 31049 ft 481 kts 254°
2026-03-26 10:15 38.12966 -3.71851 31046 ft 481 kts 254°
2026-03-26 10:15 38.11319 -3.78597 31043 ft 481 kts 254°
2026-03-26 10:16 38.09326 -3.86722 31041 ft 482 kts 253°
2026-03-26 10:16 38.07318 -3.94861 31040 ft 483 kts 253°
2026-03-26 10:17 38.05306 -4.03002 31037 ft 484 kts 253°
2026-03-26 10:17 38.03287 -4.11146 31033 ft 484 kts 253°
2026-03-26 10:18 38.01257 -4.19299 31032 ft 485 kts 253°
2026-03-26 10:18 37.99222 -4.27455 31026 ft 485 kts 253°
2026-03-26 10:19 37.97194 -4.35555 31030 ft 486 kts 253°
2026-03-26 10:19 37.96171 -4.39640 30566 ft 489 kts 253°
2026-03-26 10:19 37.95142 -4.43742 29790 ft 489 kts 253°
2026-03-26 10:20 37.94106 -4.47860 28949 ft 491 kts 253°
2026-03-26 10:20 37.93065 -4.51975 28157 ft 493 kts 253°
2026-03-26 10:20 37.92012 -4.56124 27364 ft 496 kts 253°
2026-03-26 10:20 37.90955 -4.60289 26598 ft 498 kts 253°
2026-03-26 10:21 37.89891 -4.64483 25850 ft 501 kts 253°
2026-03-26 10:21 37.88825 -4.68688 25071 ft 504 kts 253°
2026-03-26 10:21 37.87749 -4.72932 24278 ft 505 kts 253°
2026-03-26 10:21 37.86677 -4.77143 23580 ft 503 kts 253°
2026-03-26 10:22 37.85606 -4.81336 22772 ft 498 kts 253°
2026-03-26 10:22 37.84625 -4.85511 21980 ft 492 kts 258°
2026-03-26 10:22 37.83959 -4.89729 21216 ft 485 kts 260°
2026-03-26 10:22 37.83321 -4.93897 20467 ft 480 kts 260°
2026-03-26 10:23 37.82686 -4.98013 19735 ft 474 kts 260°
2026-03-26 10:23 37.82059 -5.02082 19026 ft 469 kts 260°
2026-03-26 10:23 37.81435 -5.06110 18325 ft 464 kts 260°
2026-03-26 10:23 37.80814 -5.10097 17525 ft 460 kts 260°
2026-03-26 10:24 37.80198 -5.14044 16749 ft 456 kts 259°
2026-03-26 10:24 37.79584 -5.17963 15990 ft 452 kts 259°
2026-03-26 10:24 37.78982 -5.21812 15254 ft 448 kts 259°
2026-03-26 10:24 37.78376 -5.25678 14526 ft 444 kts 259°
2026-03-26 10:25 37.77774 -5.29495 13820 ft 440 kts 259°
2026-03-26 10:25 37.77176 -5.33263 13159 ft 433 kts 259°
2026-03-26 10:25 37.76597 -5.36926 12901 ft 418 kts 259°
2026-03-26 10:25 37.76041 -5.40449 12757 ft 400 kts 259°
2026-03-26 10:26 37.75507 -5.43832 12621 ft 385 kts 259°
2026-03-26 10:26 37.74989 -5.47085 12489 ft 371 kts 259°
2026-03-26 10:26 37.74488 -5.50219 12359 ft 357 kts 259°
2026-03-26 10:26 37.74003 -5.53242 12234 ft 345 kts 259°
2026-03-26 10:27 37.73534 -5.56164 12107 ft 335 kts 259°
2026-03-26 10:27 37.73087 -5.58964 11977 ft 325 kts 259°
2026-03-26 10:27 37.72645 -5.61728 11851 ft 317 kts 259°
2026-03-26 10:27 37.72207 -5.64474 11612 ft 314 kts 259°
2026-03-26 10:28 37.71782 -5.67130 11281 ft 312 kts 259°
2026-03-26 10:28 37.71353 -5.69797 10904 ft 309 kts 259°
2026-03-26 10:28 37.70923 -5.72453 10540 ft 306 kts 259°
2026-03-26 10:28 37.70503 -5.75035 10188 ft 297 kts 259°
2026-03-26 10:29 37.70087 -5.77596 9819 ft 297 kts 259°
2026-03-26 10:29 37.69676 -5.80151 9426 ft 297 kts 259°
2026-03-26 10:29 37.69264 -5.82707 9038 ft 297 kts 259°
2026-03-26 10:29 37.68852 -5.85249 8703 ft 295 kts 259°
2026-03-26 10:30 37.68443 -5.87774 8383 ft 292 kts 259°
2026-03-26 10:30 37.68036 -5.90274 8093 ft 290 kts 259°
2026-03-26 10:30 37.67632 -5.92753 7843 ft 286 kts 259°
2026-03-26 10:30 37.67233 -5.95198 7590 ft 284 kts 259°
2026-03-26 10:31 37.66835 -5.97630 7339 ft 282 kts 259°
2026-03-26 10:31 37.66325 -6.00007 7094 ft 281 kts 248°
2026-03-26 10:31 37.65389 -6.02157 6862 ft 280 kts 233°
2026-03-26 10:31 37.64069 -6.03947 6620 ft 277 kts 218°
2026-03-26 10:32 37.62512 -6.05359 6365 ft 276 kts 213°
2026-03-26 10:32 37.60930 -6.06745 6101 ft 276 kts 213°
2026-03-26 10:32 37.59372 -6.08119 5847 ft 272 kts 213°
2026-03-26 10:32 37.57839 -6.09473 5593 ft 266 kts 213°
2026-03-26 10:33 37.56339 -6.10799 5325 ft 262 kts 212°
2026-03-26 10:33 37.54857 -6.12105 5081 ft 258 kts 213°
2026-03-26 10:33 37.53391 -6.13391 4824 ft 256 kts 212°
2026-03-26 10:33 37.51817 -6.14343 4558 ft 248 kts 191°
2026-03-26 10:34 37.50136 -6.14553 4301 ft 239 kts 171°
2026-03-26 10:34 37.48532 -6.14119 4042 ft 234 kts 159°
2026-03-26 10:34 37.46971 -6.13569 3794 ft 232 kts 160°
2026-03-26 10:34 37.45411 -6.13025 3547 ft 233 kts 160°
2026-03-26 10:35 37.43915 -6.12277 3215 ft 231 kts 143°
2026-03-26 10:35 37.42737 -6.10975 3024 ft 223 kts 124°
2026-03-26 10:35 37.41987 -6.09299 2800 ft 219 kts 106°
2026-03-26 10:35 37.41716 -6.07424 2530 ft 218 kts 88°
2026-03-26 10:36 37.41726 -6.05570 2258 ft 206 kts 88°
2026-03-26 10:36 37.41733 -6.03815 1995 ft 198 kts 88°
2026-03-26 10:36 37.41741 -6.02134 1755 ft 188 kts 88°
2026-03-26 10:36 37.41747 -6.00530 1500 ft 175 kts 88°
2026-03-26 10:37 37.41754 -5.99078 1266 ft 158 kts 88°
2026-03-26 10:37 37.41754 -5.97815 1098 ft 134 kts 89°
2026-03-26 10:37 37.41749 -5.96666 904 ft 131 kts 88°
2026-03-26 10:37 37.41748 -5.95566 752 ft 124 kts 86°
2026-03-26 10:38 37.41749 -5.94469 636 ft 124 kts 87°
2026-03-26 10:38 37.41794 -5.93366 454 ft 131 kts 90°
2026-03-26 10:38 37.41783 -5.92231 309 ft 129 kts 86°
2026-03-26 10:38 37.41789 -5.91099 139 ft 129 kts 86°
2026-03-26 10:39 37.41797 -5.90035 99 ft 107 kts 86°
2026-03-26 10:39 37.41795 -5.89321 100 ft 57 kts 90°
2026-03-26 10:39 37.41798 -5.89011 103 ft 24 kts 90°
2026-03-26 10:39 37.41803 -5.88828 104 ft 14 kts 81°
2026-03-26 10:40 37.41849 -5.88776 104 ft 0 kts 16°
2026-03-26 10:40 37.41851 -5.88775 104 ft 0 kts 16°
2026-03-26 10:40 37.41868 -5.88770 104 ft 13 kts
2026-03-26 10:40 37.41975 -5.88798 102 ft 16 kts 294°
2026-03-26 10:41 37.41985 -5.88931 102 ft 15 kts 269°
2026-03-26 10:41 37.41984 -5.89060 101 ft 14 kts 268°
2026-03-26 10:41 37.41983 -5.89184 100 ft 14 kts 270°
2026-03-26 10:41 37.41982 -5.89305 99 ft 14 kts 269°
2026-03-26 10:42 37.42021 -5.89404 98 ft 13 kts 313°
2026-03-26 10:42 37.42083 -5.89486 98 ft 12 kts 315°
2026-03-26 10:42 37.42157 -5.89581 96 ft 17 kts 314°
2026-03-26 10:43 37.42255 -5.89763 94 ft 8 kts 283°
2026-03-26 10:43 37.42286 -5.89819 94 ft 7 kts 313°
2026-03-26 10:43 37.42298 -5.89836 94 ft 1 kts 313°
2026-03-26 10:43 37.42301 -5.89840 94 ft 0 kts 313°